* Astronomy

Members Login
Username 
 
Password 
    Remember Me  
Post Info TOPIC: Asteroid 2011 WK14


L

Posts: 131433
Date:
Asteroid 2011 WK14
Permalink  
 


Orbital elements:
2011 WK14                                                Earth MOID = 0.0988 AU
Epoch 2011 Aug. 27.0 TT = JDT 2455800.5                 MPC
M  20.36375              (2000.0)            P               Q
n   0.41088871     Peri.  110.28020     +0.67888903     +0.73376588
a   1.7919253      Node   202.54337     -0.69673943     +0.63245104
e   0.3935681      Incl.    3.94954     -0.23165458     +0.24817998
P   2.40           H   20.6           G   0.15           U   9

MPEC 2011 - W36



__________________
Page 1 of 1  sorted by
 
Quick Reply

Please log in to post quick replies.



Create your own FREE Forum
Report Abuse
Powered by ActiveBoard